Presque Isle, ME

5:16 PM EST on January 19, 2017 (GMT -0500)
Northern Maine Regional At Presque Isle

Weather History for KPQI - May, 2014

Change the Weather History Date:

Thursday, May 15, 2014

  Actual Average Record
Temperature  
Mean Temperature 60 °F -  
Max Temperature 71 °F 66 °F 85 °F (1974)
Min Temperature 48 °F 38 °F 24 °F (1947)
Degree Days  
Heating Degree Days 6    
Growing Degree Days 10 (Base 50)    
Moisture  
Dew Point 47 °F    
Average Humidity 66    
Maximum Humidity 82    
Minimum Humidity 50    
Precipitation  
Precipitation 0.00 in - - ()
Sea Level Pressure  
Sea Level Pressure 30.21 in    
Wind  
Wind Speed 10 mph (SSE)    
Max Wind Speed 21 mph    
Max Gust Speed 28 mph    
Visibility 10 miles    
Events      
Averages and records for this station are not official NWS values.
T = Trace of Precipitation, MM = Missing Value Source: NWS Daily Summary

Daily Weather History Graph

Daily Weather History Graph

Search for Another Location

Airport or City:

Trip Planner

Search our weather history database for the weather conditions in past years. The results will help you decide how hot, cold, wet, or windy it might be!

Date:

Astronomy

May. 15, 2014 Rise Set
Actual Time 4:57 AM EDT 7:59 PM EDT
Civil Twilight 4:22 AM EDT 8:35 PM EDT
Nautical Twilight 3:36 AM EDT 9:22 PM EDT
Astronomical Twilight 2:40 AM EDT 10:18 PM EDT
Moon 9:03 PM EDT (5/15) 5:42 AM EDT (5/15)
Length of Visible Light 16h 13m
Length of Day
15h 02m
Full, 99% of the Moon is Illuminated
May 15
Full
May 21
Last Quarter
May 28
New
Jun 5
First Quarter
Jun 13
Full

Hourly Weather History & Observations

Time (EDT) Temp. Dew Point Humidity Pressure Visibility Wind Dir Wind Speed Gust Speed Precip Events Conditions
12:15 AM 48.2 °F 37.4 °F 66% 30.25 in 10.0 mi SSE 8.1 mph - N/A   Scattered Clouds
12:35 AM 48.2 °F 37.4 °F 66% 30.25 in 10.0 mi SSE 5.8 mph - N/A   Mostly Cloudy
12:55 AM 48.2 °F 37.4 °F 66% 30.26 in 10.0 mi SSE 5.8 mph - N/A   Overcast
1:15 AM 48.2 °F 37.4 °F 66% 30.26 in 10.0 mi SSE 5.8 mph - N/A   Overcast
1:35 AM 48.2 °F 37.4 °F 66% 30.25 in 10.0 mi SSE 8.1 mph - N/A   Overcast
1:55 AM 48.2 °F 39.2 °F 71% 30.25 in 10.0 mi SSE 8.1 mph - N/A   Overcast
2:15 AM 48.2 °F 39.2 °F 71% 30.25 in 10.0 mi SSE 5.8 mph - N/A   Overcast
2:35 AM 48.2 °F 39.2 °F 71% 30.25 in 10.0 mi South 6.9 mph - N/A   Overcast
2:55 AM 48.2 °F 39.2 °F 71% 30.25 in 10.0 mi SSE 5.8 mph - N/A   Overcast
3:15 AM 48.2 °F 39.2 °F 71% 30.25 in 10.0 mi SE 6.9 mph - N/A   Overcast
3:35 AM 48.2 °F 39.2 °F 71% 30.25 in 10.0 mi SSE 8.1 mph - N/A   Overcast
3:55 AM 48.2 °F 39.2 °F 71% 30.24 in 10.0 mi SSE 9.2 mph - N/A   Overcast
4:15 AM 48.2 °F 41.0 °F 76% 30.24 in 10.0 mi SSE 11.5 mph - N/A   Overcast
4:35 AM 48.2 °F 41.0 °F 76% 30.24 in 10.0 mi SSE 10.4 mph - N/A   Overcast
4:55 AM 48.2 °F 41.0 °F 76% 30.24 in 10.0 mi SSE 9.2 mph - N/A   Overcast
5:15 AM 48.2 °F 42.8 °F 82% 30.25 in 10.0 mi SSE 9.2 mph - N/A   Overcast
5:35 AM 48.2 °F 42.8 °F 82% 30.26 in 10.0 mi SSE 6.9 mph - N/A   Overcast
5:55 AM 48.2 °F 42.8 °F 82% 30.26 in 10.0 mi SSE 6.9 mph - N/A   Overcast
6:15 AM 48.2 °F 42.8 °F 82% 30.26 in 10.0 mi SSE 5.8 mph - N/A   Overcast
6:35 AM 48.2 °F 42.8 °F 82% 30.26 in 10.0 mi SSE 5.8 mph - N/A   Overcast
6:55 AM 50.0 °F 42.8 °F 76% 30.27 in 10.0 mi South 9.2 mph - N/A   Overcast
7:15 AM 50.0 °F 42.8 °F 76% 30.26 in 10.0 mi SSE 11.5 mph - N/A   Overcast
7:35 AM 51.8 °F 42.8 °F 71% 30.26 in 10.0 mi SSE 9.2 mph - N/A   Overcast
7:55 AM 51.8 °F 42.8 °F 71% 30.25 in 10.0 mi SE 11.5 mph - N/A   Overcast
8:15 AM 51.8 °F 42.8 °F 71% 30.25 in 10.0 mi SSE 11.5 mph - N/A   Overcast
8:35 AM 51.8 °F 44.6 °F 76% 30.25 in 10.0 mi SSE 11.5 mph - N/A   Overcast
8:55 AM 53.6 °F 44.6 °F 72% 30.25 in 10.0 mi SE 11.5 mph - N/A   Mostly Cloudy
9:15 AM 55.4 °F 44.6 °F 67% 30.24 in 10.0 mi SE 13.8 mph - N/A   Mostly Cloudy
9:35 AM 55.4 °F 44.6 °F 67% 30.24 in 10.0 mi SE 13.8 mph 17.3 mph N/A   Scattered Clouds
9:55 AM 55.4 °F 44.6 °F 67% 30.24 in 10.0 mi SE 10.4 mph 16.1 mph N/A   Clear
10:15 AM 57.2 °F 46.4 °F 67% 30.24 in 10.0 mi SE 12.7 mph - N/A   Clear
10:35 AM 59.0 °F 46.4 °F 63% 30.23 in 10.0 mi SE 15.0 mph 18.4 mph N/A   Clear
10:55 AM 59.0 °F 46.4 °F 63% 30.23 in 10.0 mi SE 12.7 mph 18.4 mph N/A   Clear
11:15 AM 60.8 °F 46.4 °F 59% 30.23 in 9.0 mi SE 12.7 mph - N/A   Clear
11:35 AM 64.4 °F 48.2 °F 56% 30.22 in 10.0 mi SSE 11.5 mph 19.6 mph N/A   Clear
11:55 AM 64.4 °F 48.2 °F 56% 30.21 in 10.0 mi SSE 12.7 mph 19.6 mph N/A   Clear
12:15 PM 66.2 °F 48.2 °F 52% 30.21 in 10.0 mi SSE 13.8 mph - N/A   Clear
12:35 PM 66.2 °F 50.0 °F 56% 30.20 in 10.0 mi South 12.7 mph - N/A   Clear
12:55 PM 66.2 °F 50.0 °F 56% 30.20 in 10.0 mi SSW 12.7 mph 20.7 mph N/A   Clear
1:15 PM 66.2 °F 50.0 °F 56% 30.19 in 10.0 mi SSE 11.5 mph 17.3 mph N/A   Clear
1:35 PM 68.0 °F 50.0 °F 52% 30.19 in 10.0 mi SSE 12.7 mph 18.4 mph N/A   Clear
1:55 PM 66.2 °F 50.0 °F 56% 30.19 in 10.0 mi SSE 11.5 mph 23.0 mph N/A   Clear
2:15 PM 68.0 °F 51.8 °F 56% 30.18 in 10.0 mi South 15.0 mph 19.6 mph N/A   Clear
2:35 PM 68.0 °F 51.8 °F 56% 30.18 in 10.0 mi South 15.0 mph 20.7 mph N/A   Clear
3:15 PM 69.8 °F 51.8 °F 53% 30.17 in 10.0 mi SSE 17.3 mph 21.9 mph N/A   Clear
3:35 PM 71.6 °F 51.8 °F 50% 30.16 in 10.0 mi South 18.4 mph 23.0 mph N/A   Clear
3:55 PM 71.6 °F 53.6 °F 53% 30.16 in 10.0 mi SSE 17.3 mph 20.7 mph N/A   Clear
4:15 PM 71.6 °F 53.6 °F 53% 30.16 in 10.0 mi SSE 18.4 mph 23.0 mph N/A   Clear
4:35 PM 71.6 °F 53.6 °F 53% 30.16 in 10.0 mi SSE 13.8 mph 21.9 mph N/A   Clear
4:55 PM 69.8 °F 53.6 °F 56% 30.16 in 10.0 mi South 12.7 mph 20.7 mph N/A   Clear
5:15 PM 69.8 °F 53.6 °F 56% 30.16 in 10.0 mi South 16.1 mph 21.9 mph N/A   Clear
5:35 PM 69.8 °F 53.6 °F 56% 30.15 in 10.0 mi South 20.7 mph 24.2 mph N/A   Clear
5:55 PM 69.8 °F 53.6 °F 56% 30.16 in 10.0 mi South 19.6 mph - N/A   Partly Cloudy
6:15 PM 69.8 °F 53.6 °F 56% 30.15 in 10.0 mi South 19.6 mph 24.2 mph N/A   Clear
6:35 PM 68.0 °F 53.6 °F 60% 30.16 in 10.0 mi South 15.0 mph 25.3 mph N/A   Clear
6:55 PM 68.0 °F 53.6 °F 60% 30.16 in 10.0 mi South 15.0 mph 23.0 mph N/A   Clear
7:15 PM 66.2 °F 53.6 °F 64% 30.16 in 10.0 mi South 17.3 mph 27.6 mph N/A   Clear
7:35 PM 66.2 °F 53.6 °F 64% 30.17 in 10.0 mi South 16.1 mph 20.7 mph N/A   Clear
7:55 PM 64.4 °F 53.6 °F 68% 30.17 in 10.0 mi South 16.1 mph 23.0 mph N/A   Clear
8:15 PM 64.4 °F 53.6 °F 68% 30.18 in 10.0 mi South 10.4 mph 24.2 mph N/A   Clear
8:35 PM 64.4 °F 53.6 °F 68% 30.18 in 10.0 mi SSE 10.4 mph - N/A   Clear
8:55 PM 62.6 °F 51.8 °F 68% 30.18 in 10.0 mi South 10.4 mph 18.4 mph N/A   Clear
9:15 PM 62.6 °F 51.8 °F 68% 30.19 in 10.0 mi South 11.5 mph - N/A   Clear
9:35 PM 62.6 °F 51.8 °F 68% 30.19 in 10.0 mi South 13.8 mph - N/A   Clear
9:55 PM 62.6 °F 51.8 °F 68% 30.20 in 10.0 mi South 10.4 mph - N/A   Clear
10:15 PM 62.6 °F 51.8 °F 68% 30.19 in 10.0 mi SSE 10.4 mph - N/A   Clear
10:35 PM 62.6 °F 51.8 °F 68% 30.20 in 10.0 mi South 6.9 mph - N/A   Clear
10:55 PM 62.6 °F 51.8 °F 68% 30.20 in 10.0 mi South 9.2 mph - N/A   Partly Cloudy
11:15 PM 62.6 °F 51.8 °F 68% 30.19 in 10.0 mi South 12.7 mph - N/A   Partly Cloudy
11:35 PM 60.8 °F 51.8 °F 72% 30.18 in 10.0 mi SSE 11.5 mph - N/A   Clear
11:55 PM 60.8 °F 51.8 °F 72% 30.19 in 10.0 mi South 11.5 mph - N/A   Clear